2016-10-29 00:07:00 r, 15.84m,0000000041Hz,0000011291c,0000000.025s, 021.9C,00002195
2016-10-29 00:17:00 r, 15.54m,0000000054Hz,0000008630c,0000000.019s, 021.5C,00002195
2016-10-29 00:27:00 r, 15.53m,0000000054Hz,0000008540c,0000000.019s, 021.9C,00002195
2016-10-29 00:37:00 r, 15.40m,0000000062Hz,0000007492c,0000000.016s, 021.5C,00002195
2016-10-29 00:47:00 r, 15.61m,0000000050Hz,0000009191c,0000000.020s, 021.5C,00002195
2016-10-29 00:57:00 r, 15.76m,0000000043Hz,0000010525c,0000000.023s, 021.5C,00002195
2016-10-29 01:07:00 r, 16.32m,0000000026Hz,0000017564c,0000000.038s, 021.5C,00002195
2016-10-29 01:17:00 r, 17.41m,0000000010Hz,0000047862c,0000000.104s, 021.5C,00002195
2016-10-29 01:27:00 r, 16.92m,0000000014Hz,0000030333c,0000000.066s, 021.5C,00002195
2016-10-29 01:37:00 r, 18.45m,0000000003Hz,0000123792c,0000000.269s, 021.5C,00002195
2016-10-29 01:47:02 r, 17.41m,0000000011Hz,0000047623c,0000000.103s, 021.5C,00002195
2016-10-29 01:57:00 r, 16.06m,0000000034Hz,0000013745c,0000000.030s, 021.2C,00002195
2016-10-29 02:07:00 r, 16.94m,0000000014Hz,0000030892c,0000000.067s, 021.5C,00002195
2016-10-29 02:17:00 r, 16.14m,0000000031Hz,0000014906c,0000000.032s, 021.5C,00002195
2016-10-29 02:27:00 r, 16.28m,0000000028Hz,0000016935c,0000000.037s, 021.5C,00002195
2016-10-29 02:37:00 r, 16.35m,0000000026Hz,0000018127c,0000000.039s, 021.5C,00002195
2016-10-29 02:47:00 r, 16.85m,0000000016Hz,0000028393c,0000000.062s, 021.2C,00002195
2016-10-29 02:57:00 r, 17.09m,0000000013Hz,0000035803c,0000000.078s, 021.2C,00002195
2016-10-29 03:07:00 r, 16.29m,0000000027Hz,0000016985c,0000000.037s, 021.2C,00002195
2016-10-29 03:17:00 r, 16.40m,0000000025Hz,0000018741c,0000000.041s, 021.2C,00002195
2016-10-29 03:27:00 r, 16.49m,0000000023Hz,0000020456c,0000000.044s, 021.2C,00002195
2016-10-29 03:37:00 r, 16.19m,0000000029Hz,0000015511c,0000000.034s, 021.2C,00002195
2016-10-29 03:47:00 r, 16.05m,0000000034Hz,0000013644c,0000000.030s, 021.2C,00002195
2016-10-29 03:57:00 r, 15.97m,0000000036Hz,0000012619c,0000000.027s, 021.2C,00002195
2016-10-29 04:07:02 r, 15.71m,0000000047Hz,0000009936c,0000000.022s, 021.2C,00002195
2016-10-29 04:17:00 r, 16.39m,0000000024Hz,0000018588c,0000000.040s, 021.2C,00002195
2016-10-29 04:27:00 r, 16.06m,0000000032Hz,0000013853c,0000000.030s, 020.9C,00002195
2016-10-29 04:37:00 r, 16.68m,0000000020Hz,0000024511c,0000000.053s, 020.6C,00002195
2016-10-29 04:47:00 r, 16.16m,0000000031Hz,0000015117c,0000000.033s, 020.6C,00002195
2016-10-29 04:57:00 r, 16.53m,0000000022Hz,0000021486c,0000000.047s, 020.6C,00002195
2016-10-29 05:07:00 r, 16.09m,0000000033Hz,0000014154c,0000000.031s, 020.6C,00002195
2016-10-29 05:17:00 r, 16.04m,0000000035Hz,0000013609c,0000000.030s, 020.3C,00002195
2016-10-29 05:27:02 r, 17.51m,0000000009Hz,0000052700c,0000000.114s, 020.3C,00002195
2016-10-29 05:37:01 r, 16.52m,0000000022Hz,0000021222c,0000000.046s, 020.3C,00002195
2016-10-29 05:47:00 r, 16.79m,0000000017Hz,0000027054c,0000000.059s, 020.3C,00002195
2016-10-29 05:57:00 r, 16.64m,0000000020Hz,0000023473c,0000000.051s, 020.3C,00002195
2016-10-29 06:07:01 r, 16.73m,0000000018Hz,0000025631c,0000000.056s, 020.3C,00002195
2016-10-29 06:17:00 r, 16.37m,0000000025Hz,0000018480c,0000000.040s, 020.3C,00002195
2016-10-29 06:27:01 r, 16.26m,0000000027Hz,0000016731c,0000000.036s, 020.3C,00002195
2016-10-29 06:37:01 r, 16.12m,0000000032Hz,0000014563c,0000000.032s, 020.3C,00002195
2016-10-29 06:47:01 r, 15.98m,0000000035Hz,0000012833c,0000000.028s, 019.9C,00002195
2016-10-29 06:57:01 r, 16.20m,0000000029Hz,0000015726c,0000000.034s, 019.9C,00002195
2016-10-29 07:07:01 r, 16.24m,0000000029Hz,0000016344c,0000000.035s, 019.9C,00002195
2016-10-29 07:17:01 r, 15.88m,0000000039Hz,0000011710c,0000000.025s, 019.6C,00002195
2016-10-29 07:27:01 r, 15.16m,0000000076Hz,0000006031c,0000000.013s, 019.6C,00002195
2016-10-29 07:37:01 r, 13.73m,0000000286Hz,0000000000c,0000000.000s, 019.9C,00002195
2016-10-29 07:47:01 r, 11.83m,0000001651Hz,0000000000c,0000000.000s, 019.9C,00002195
2016-10-29 07:57:01 r, 09.77m,0000011034Hz,0000000000c,0000000.000s, 019.9C,00002195
2016-10-29 08:07:01 r, 08.18m,0000047763Hz,0000000000c,0000000.000s, 019.9C,00002195
2016-10-29 08:17:01 r, 07.04m,0000136783Hz,0000000000c,0000000.000s, 019.9C,00002195
2016-10-29 08:27:01 r, 06.35m,0000256720Hz,0000000000c,0000000.000s, 019.9C,00002195
2016-10-29 08:37:01 r, 05.90m,0000388728Hz,0000000000c,0000000.000s, 019.9C,00002195
2016-10-29 08:47:01 r, 00.00m,0000563591Hz,0000000000c,0000000.000s, 019.9C,00002195
2016-10-29 08:57:01 r, 00.00m,0000563584Hz,0000000000c,0000000.000s, 019.9C,00002195
2016-10-29 09:07:02 r, 00.00m,0000563682Hz,0000000000c,0000000.000s, 020.3C,00002195
2016-10-29 09:17:01 r, 00.00m,0000563631Hz,0000000000c,0000000.000s, 019.9C,00002195
2016-10-29 09:27:01 r, 00.00m,0000563648Hz,0000000000c,0000000.000s, 020.3C,00002195
2016-10-29 09:37:01 r, 00.00m,0000563719Hz,0000000000c,0000000.000s, 020.6C,00002195
2016-10-29 09:47:01 r, 00.00m,0000563685Hz,0000000000c,0000000.000s, 020.9C,00002195
2016-10-29 09:57:01 r, 00.00m,0000563635Hz,0000000000c,0000000.000s, 020.9C,00002195
2016-10-29 10:07:01 r, 00.00m,0000563714Hz,0000000000c,0000000.000s, 021.2C,00002195
2016-10-29 10:17:01 r, 00.00m,0000563791Hz,0000000000c,0000000.000s, 021.2C,00002195
2016-10-29 10:27:01 r, 00.00m,0000563788Hz,0000000000c,0000000.000s, 021.5C,00002195
2016-10-29 10:37:01 r, 00.00m,0000563749Hz,0000000000c,0000000.000s, 021.5C,00002195
2016-10-29 10:47:01 r, 00.00m,0000563818Hz,0000000000c,0000000.000s, 022.2C,00002195
2016-10-29 10:57:01 r, 00.00m,0000563836Hz,0000000000c,0000000.000s, 022.2C,00002195
2016-10-29 11:07:01 r, 00.00m,0000563893Hz,0000000000c,0000000.000s, 022.5C,00002195
2016-10-29 11:17:01 r, 00.00m,0000563849Hz,0000000000c,0000000.000s, 022.8C,00002195
2016-10-29 11:27:01 r, 00.00m,0000563904Hz,0000000000c,0000000.000s, 022.8C,00002195
2016-10-29 11:37:01 r, 00.00m,0000564122Hz,0000000000c,0000000.000s, 023.8C,00002195
2016-10-29 11:47:01 r, 00.00m,0000564231Hz,0000000000c,0000000.000s, 025.4C,00002195
2016-10-29 11:57:01 r, 00.00m,0000564220Hz,0000000000c,0000000.000s, 025.4C,00002195
2016-10-29 12:07:01 r, 00.00m,0000564151Hz,0000000000c,0000000.000s, 025.4C,00002195
2016-10-29 12:17:01 r, 00.00m,0000564081Hz,0000000000c,0000000.000s, 025.1C,00002195
2016-10-29 12:27:01 r, 00.00m,0000564170Hz,0000000000c,0000000.000s, 024.8C,00002195
2016-10-29 12:37:01 r, 00.00m,0000564193Hz,0000000000c,0000000.000s, 024.8C,00002195
2016-10-29 12:47:01 r, 00.00m,0000564096Hz,0000000000c,0000000.000s, 025.1C,00002195
2016-10-29 12:57:01 r, 00.00m,0000564290Hz,0000000000c,0000000.000s, 025.4C,00002195
2016-10-29 13:07:01 r, 00.00m,0000564346Hz,0000000000c,0000000.000s, 026.1C,00002195
2016-10-29 13:17:01 r, 00.00m,0000564226Hz,0000000000c,0000000.000s, 025.7C,00002195
2016-10-29 13:27:01 r, 00.00m,0000564191Hz,0000000000c,0000000.000s, 025.7C,00002195
2016-10-29 13:37:01 r, 00.00m,0000564346Hz,0000000000c,0000000.000s, 025.7C,00002195
2016-10-29 13:47:01 r, 00.00m,0000564234Hz,0000000000c,0000000.000s, 026.1C,00002195
2016-10-29 13:57:01 r, 00.00m,0000564204Hz,0000000000c,0000000.000s, 025.4C,00002195
2016-10-29 14:07:01 r, 00.00m,0000564238Hz,0000000000c,0000000.000s, 025.4C,00002195
2016-10-29 14:17:01 r, 00.00m,0000564304Hz,0000000000c,0000000.000s, 026.1C,00002195
2016-10-29 14:27:01 r, 00.00m,0000564285Hz,0000000000c,0000000.000s, 025.7C,00002195
2016-10-29 14:37:01 r, 00.00m,0000564184Hz,0000000000c,0000000.000s, 025.7C,00002195
2016-10-29 14:47:01 r, 00.00m,0000564169Hz,0000000000c,0000000.000s, 025.7C,00002195
2016-10-29 14:57:01 r, 00.00m,0000564166Hz,0000000000c,0000000.000s, 025.4C,00002195
2016-10-29 15:07:01 r, 00.00m,0000564192Hz,0000000000c,0000000.000s, 025.4C,00002195
2016-10-29 15:17:01 r, 00.00m,0000564101Hz,0000000000c,0000000.000s, 025.4C,00002195
2016-10-29 15:27:01 r, 00.00m,0000564154Hz,0000000000c,0000000.000s, 024.8C,00002195
2016-10-29 15:37:01 r, 00.00m,0000564100Hz,0000000000c,0000000.000s, 024.8C,00002195
2016-10-29 15:47:01 r, 00.00m,0000564070Hz,0000000000c,0000000.000s, 024.4C,00002195
2016-10-29 15:57:01 r, 00.00m,0000563855Hz,0000000000c,0000000.000s, 024.4C,00002195
2016-10-29 16:07:01 r, 00.00m,0000563914Hz,0000000000c,0000000.000s, 024.1C,00002195
2016-10-29 16:17:01 r, 00.00m,0000563974Hz,0000000000c,0000000.000s, 024.1C,00002195
2016-10-29 16:27:01 r, 00.00m,0000563992Hz,0000000000c,0000000.000s, 024.4C,00002195
2016-10-29 16:37:01 r, 00.00m,0000564012Hz,0000000000c,0000000.000s, 024.4C,00002195
2016-10-29 16:47:01 r, 00.00m,0000564083Hz,0000000000c,0000000.000s, 024.1C,00002195
2016-10-29 16:57:01 r, 00.00m,0000563984Hz,0000000000c,0000000.000s, 024.1C,00002195
2016-10-29 17:07:01 r, 00.00m,0000563939Hz,0000000000c,0000000.000s, 023.8C,00002195
2016-10-29 17:17:01 r, 00.00m,0000563953Hz,0000000000c,0000000.000s, 023.5C,00002195
2016-10-29 17:27:01 r, 00.00m,0000506516Hz,0000000000c,0000000.000s, 023.5C,00002195
2016-10-29 17:37:01 r, 06.26m,0000279904Hz,0000000000c,0000000.000s, 023.2C,00002195
2016-10-29 17:47:01 r, 06.69m,0000186511Hz,0000000000c,0000000.000s, 023.2C,00002195
2016-10-29 17:57:01 r, 07.29m,0000108239Hz,0000000000c,0000000.000s, 023.2C,00002195
2016-10-29 18:07:01 r, 07.47m,0000091140Hz,0000000000c,0000000.000s, 022.8C,00002195
2016-10-29 18:17:01 r, 08.06m,0000053465Hz,0000000000c,0000000.000s, 022.8C,00002195
2016-10-29 18:27:01 r, 09.66m,0000012217Hz,0000000000c,0000000.000s, 022.5C,00002195
2016-10-29 18:37:01 r, 11.90m,0000001537Hz,0000000000c,0000000.000s, 022.5C,00002195
2016-10-29 18:47:01 r, 13.73m,0000000287Hz,0000000000c,0000000.000s, 022.2C,00002195
2016-10-29 18:57:01 r, 14.79m,0000000107Hz,0000004310c,0000000.009s, 022.2C,00002195
2016-10-29 19:07:02 r, 14.87m,0000000100Hz,0000004625c,0000000.010s, 022.2C,00002195
2016-10-29 19:17:01 r, 15.19m,0000000075Hz,0000006215c,0000000.013s, 022.2C,00002195
2016-10-29 19:27:01 r, 16.81m,0000000017Hz,0000027717c,0000000.060s, 022.2C,00002195
2016-10-29 19:37:02 r, 16.61m,0000000020Hz,0000022974c,0000000.050s, 022.2C,00002195
2016-10-29 19:47:01 r, 16.22m,0000000028Hz,0000016068c,0000000.035s, 022.2C,00002195
2016-10-29 19:57:01 r, 16.96m,0000000015Hz,0000031584c,0000000.069s, 022.2C,00002195
2016-10-29 20:07:01 r, 17.18m,0000000012Hz,0000038688c,0000000.084s, 022.2C,00002195
2016-10-29 20:17:01 r, 18.08m,0000000006Hz,0000088379c,0000000.192s, 021.9C,00002195
2016-10-29 20:27:01 r, 17.66m,0000000008Hz,0000059655c,0000000.129s, 021.9C,00002195
2016-10-29 20:37:01 r, 17.17m,0000000012Hz,0000038221c,0000000.083s, 021.5C,00002195
2016-10-29 20:47:01 r, 18.40m,0000000004Hz,0000118177c,0000000.256s, 021.5C,00002195
2016-10-29 20:57:01 r, 17.12m,0000000013Hz,0000036476c,0000000.079s, 021.2C,00002195
2016-10-29 21:07:02 r, 18.41m,0000000004Hz,0000118997c,0000000.258s, 021.2C,00002195
2016-10-29 21:17:02 r, 18.41m,0000000004Hz,0000120172c,0000000.261s, 020.9C,00002195
2016-10-29 21:27:01 r, 18.42m,0000000004Hz,0000121823c,0000000.264s, 020.9C,00002195
2016-10-29 21:37:01 r, 18.42m,0000000003Hz,0000121802c,0000000.264s, 020.6C,00002195
2016-10-29 21:47:01 r, 18.43m,0000000004Hz,0000122655c,0000000.266s, 020.6C,00002195
2016-10-29 21:57:01 r, 18.44m,0000000003Hz,0000123780c,0000000.269s, 020.3C,00002195
2016-10-29 22:07:01 r, 18.45m,0000000003Hz,0000124463c,0000000.270s, 020.3C,00002195
2016-10-29 22:17:03 r, 17.72m,0000000007Hz,0000063676c,0000000.138s, 020.3C,00002195
2016-10-29 22:27:02 r, 16.91m,0000000015Hz,0000030165c,0000000.065s, 020.3C,00002195
2016-10-29 22:37:01 r, 17.77m,0000000007Hz,0000067038c,0000000.145s, 020.3C,00002195
2016-10-29 22:47:01 r, 18.44m,0000000004Hz,0000123542c,0000000.268s, 020.3C,00002195
2016-10-29 22:57:01 r, 18.44m,0000000004Hz,0000123805c,0000000.269s, 020.3C,00002195
2016-10-29 23:07:02 r, 18.44m,0000000004Hz,0000123840c,0000000.269s, 019.9C,00002195
2016-10-29 23:17:01 r, 17.52m,0000000008Hz,0000053039c,0000000.115s, 019.9C,00002195
2016-10-29 23:27:01 r, 17.91m,0000000006Hz,0000076093c,0000000.165s, 019.9C,00002195
2016-10-29 23:37:01 r, 18.07m,0000000005Hz,0000088235c,0000000.191s, 019.6C,00002195
2016-10-29 23:47:01 r, 18.44m,0000000004Hz,0000123754c,0000000.269s, 019.6C,00002195
2016-10-29 23:57:01 r, 18.45m,0000000004Hz,0000124635c,0000000.270s, 019.6C,00002195
